When you browse on this site, cookies collect data to enhance your experience and personalize the content and advertising you see.
Visit our Privacy Policy to learn more. By continuing to use the site, you agree to this use of cookies and data.
  • In Switzerland
  • List of Countries
  • For 7 days
  • Water Temperature
  • Satellite Maps
  • Weather Map
  • Weather Widgets
  • user-avatar
    Login

    Hourly Weather Goslar

    Today, 26 May, Sunday

    Time Temperature Precipitation Wind Pressure Humidity
    00:00 +8°C° 0 mm 1 mps 734 mmHg 93%
    01:00 +8°C° 0 mm 1 mps 734 mmHg 93%
    02:00 +7°C° 0 mm 2 mps 734 mmHg 94%
    03:00 +7°C° 0 mm 2 mps 734 mmHg 94%
    04:00 +6°C° 0 mm 2 mps 733 mmHg 95%
    05:00 +8°C° 0 mm 3 mps 733 mmHg 91%
    06:00 +10°C° 0 mm 3 mps 733 mmHg 87%
    07:00 +11°C° 0 mm 4 mps 733 mmHg 83%
    08:00 +13°C° 0 mm 4 mps 733 mmHg 78%
    09:00 +14°C° 0 mm 5 mps 733 mmHg 72%
    10:00 +16°C° 0 mm 6 mps 733 mmHg 66%
    11:00 +17°C° 0 mm 6 mps 732 mmHg 63%
    12:00 +19°C° 0 mm 6 mps 732 mmHg 59%
    13:00 +20°C° 0 mm 6 mps 732 mmHg 56%
    14:00 +20°C° 0 mm 5 mps 731 mmHg 58%
    15:00 +20°C° 0 mm 5 mps 731 mmHg 60%
    16:00 +20°C° 0 mm 5 mps 731 mmHg 62%
    17:00 +19°C° 0 mm 4 mps 730 mmHg 67%
    18:00 +19°C° 0 mm 4 mps 730 mmHg 72%
    19:00 +18°C° 0 mm 4 mps 730 mmHg 76%
    20:00 +17°C° 0 mm 4 mps 729 mmHg 81%
    21:00 +14°C° 0 mm 4 mps 729 mmHg 86%
    22:00 +13°C° 0 mm 4 mps 729 mmHg 90%
    23:00 +13°C° 0 mm 4 mps 729 mmHg 91%

    Tomorrow, 27 May, Monday

    Time Temperature Precipitation Wind Pressure Humidity
    00:00 +13°C° 0 mm 4 mps 729 mmHg 93%
    01:00 +12°C° 0 mm 4 mps 729 mmHg 94%
    02:00 +12°C° 0 mm 4 mps 728 mmHg 93%
    03:00 +12°C° 0 mm 5 mps 728 mmHg 92%
    04:00 +12°C° 0 mm 5 mps 728 mmHg 91%
    05:00 +12°C° 0.2 mm 5 mps 728 mmHg 93%
    06:00 +12°C° 0.2 mm 4 mps 728 mmHg 94%
    07:00 +13°C° 0.2 mm 4 mps 728 mmHg 95%
    08:00 +13°C° 0.1 mm 4 mps 728 mmHg 92%
    09:00 +13°C° 0.1 mm 3 mps 729 mmHg 90%
    10:00 +13°C° 0.1 mm 3 mps 729 mmHg 87%
    11:00 +14°C° 0.1 mm 3 mps 729 mmHg 83%
    12:00 +14°C° 0.1 mm 3 mps 729 mmHg 79%
    13:00 +16°C° 0.1 mm 3 mps 729 mmHg 75%
    14:00 +15°C° 0.1 mm 4 mps 729 mmHg 71%
    15:00 +17°C° 0.1 mm 4 mps 729 mmHg 68%
    16:00 +17°C° 0.1 mm 4 mps 729 mmHg 65%
    17:00 +16°C° 0.1 mm 3 mps 729 mmHg 70%
    18:00 +16°C° 0.1 mm 3 mps 729 mmHg 74%
    19:00 +15°C° 0.1 mm 2 mps 729 mmHg 79%
    20:00 +13°C° 0 mm 2 mps 729 mmHg 83%
    21:00 +12°C° 0 mm 1 mps 729 mmHg 87%
    22:00 +10°C° 0 mm 1 mps 729 mmHg 91%
    23:00 +10°C° 0 mm 1 mps 729 mmHg 91%

    Day after tomorrow, 28 May, Tuesday

    Time Temperature Precipitation Wind Pressure Humidity
    00:00 +10°C° 0 mm 1 mps 729 mmHg 91%
    01:00 +10°C° 0 mm 1 mps 729 mmHg 91%
    02:00 +9°C° 0 mm 1 mps 728 mmHg 92%
    03:00 +8°C° 0 mm 1 mps 728 mmHg 93%
    04:00 +7°C° 0 mm 1 mps 728 mmHg 94%
    05:00 +9°C° 0 mm 1 mps 728 mmHg 90%
    06:00 +10°C° 0 mm 1 mps 728 mmHg 85%
    07:00 +12°C° 0 mm 1 mps 728 mmHg 81%
    08:00 +13°C° 0 mm 1 mps 728 mmHg 74%
    09:00 +14°C° 0 mm 1 mps 728 mmHg 68%
    10:00 +16°C° 0 mm 1 mps 728 mmHg 61%
    11:00 +16°C° 0.1 mm 1 mps 728 mmHg 60%
    12:00 +18°C° 0.1 mm 1 mps 727 mmHg 59%
    13:00 +17°C° 0.1 mm 0 mps 727 mmHg 58%
    14:00 +16°C° 0.5 mm 0 mps 727 mmHg 61%
    15:00 +16°C° 0.5 mm 0 mps 727 mmHg 65%
    16:00 +16°C° 0.5 mm 1 mps 727 mmHg 68%
    17:00 +16°C° 0.7 mm 1 mps 727 mmHg 75%
    18:00 +15°C° 0.7 mm 1 mps 727 mmHg 81%
    19:00 +14°C° 0.7 mm 1 mps 727 mmHg 87%
    20:00 +13°C° 0.3 mm 1 mps 728 mmHg 88%
    21:00 +11°C° 0.3 mm 0 mps 728 mmHg 89%
    22:00 +10°C° 0.3 mm 0 mps 728 mmHg 90%
    23:00 +9°C° 0 mm 0 mps 729 mmHg 91%

    29 May, Wednesday

    Time Temperature Precipitation Wind Pressure Humidity
    00:00 +8°C° 0 mm 0 mps 729 mmHg 92%
    01:00 +8°C° 0 mm 0 mps 729 mmHg 93%
    02:00 +9°C° 0 mm 1 mps 729 mmHg 94%
    03:00 +8°C° 0 mm 1 mps 730 mmHg 95%
    04:00 +8°C° 0 mm 1 mps 730 mmHg 96%
    05:00 +8°C° 0 mm 2 mps 730 mmHg 97%
    06:00 +8°C° 0 mm 3 mps 731 mmHg 97%
    07:00 +8°C° 0 mm 3 mps 732 mmHg 97%
    08:00 +8°C° 0 mm 3 mps 732 mmHg 96%
    09:00 +8°C° 0 mm 3 mps 733 mmHg 96%
    10:00 +8°C° 0 mm 3 mps 733 mmHg 95%
    11:00 +8°C° 0.1 mm 3 mps 734 mmHg 93%
    12:00 +9°C° 0.1 mm 3 mps 734 mmHg 91%
    13:00 +9°C° 0.1 mm 3 mps 734 mmHg 89%
    14:00 +10°C° 0.1 mm 3 mps 734 mmHg 84%
    15:00 +11°C° 0.1 mm 3 mps 735 mmHg 79%
    16:00 +12°C° 0.1 mm 3 mps 735 mmHg 75%
    17:00 +12°C° 0.1 mm 2 mps 735 mmHg 77%
    18:00 +12°C° 0.1 mm 2 mps 736 mmHg 79%
    19:00 +12°C° 0.1 mm 2 mps 736 mmHg 82%
    20:00 +9°C° 0 mm 2 mps 736 mmHg 85%
    21:00 +8°C° 0 mm 1 mps 736 mmHg 88%
    22:00 +7°C° 0 mm 1 mps 737 mmHg 92%
    23:00 +6°C° 0 mm 1 mps 737 mmHg 92%

    30 May, Thursday

    Time Temperature Precipitation Wind Pressure Humidity
    00:00 +6°C° 0 mm 1 mps 737 mmHg 92%
    01:00 +5°C° 0 mm 1 mps 737 mmHg 92%
    02:00 +5°C° 0 mm 1 mps 737 mmHg 92%
    03:00 +5°C° 0 mm 1 mps 737 mmHg 92%
    04:00 +5°C° 0 mm 1 mps 737 mmHg 92%
    05:00 +6°C° 0 mm 1 mps 737 mmHg 89%
    06:00 +8°C° 0 mm 1 mps 738 mmHg 86%
    07:00 +9°C° 0 mm 2 mps 738 mmHg 83%
    08:00 +10°C° 0 mm 2 mps 738 mmHg 73%
    09:00 +13°C° 0 mm 2 mps 738 mmHg 62%
    10:00 +15°C° 0 mm 2 mps 738 mmHg 51%
    11:00 +15°C° 0.1 mm 2 mps 738 mmHg 55%
    12:00 +15°C° 0.1 mm 2 mps 738 mmHg 59%
    13:00 +14°C° 0.1 mm 3 mps 738 mmHg 62%
    14:00 +14°C° 0.3 mm 3 mps 738 mmHg 69%
    15:00 +13°C° 0.3 mm 3 mps 737 mmHg 75%
    16:00 +13°C° 0.3 mm 3 mps 737 mmHg 81%
    17:00 +13°C° 0.1 mm 3 mps 737 mmHg 83%
    18:00 +12°C° 0.1 mm 3 mps 738 mmHg 84%
    19:00 +12°C° 0.1 mm 3 mps 738 mmHg 86%
    20:00 +12°C° 0 mm 2 mps 738 mmHg 89%
    21:00 +9°C° 0 mm 2 mps 739 mmHg 91%
    22:00 +9°C° 0 mm 1 mps 739 mmHg 94%
    23:00 +9°C° 0.2 mm 1 mps 739 mmHg 94%

    31 May, Friday

    Time Temperature Precipitation Wind Pressure Humidity
    00:00 +8°C° 0.2 mm 0 mps 739 mmHg 94%
    01:00 +7°C° 0.2 mm 0 mps 740 mmHg 95%
    02:00 +7°C° 0.4 mm 0 mps 740 mmHg 95%
    03:00 +7°C° 0.4 mm 0 mps 740 mmHg 95%
    04:00 +7°C° 0.4 mm 0 mps 740 mmHg 94%
    05:00 +8°C° 0 mm 0 mps 740 mmHg 92%
    06:00 +10°C° 0 mm 1 mps 741 mmHg 91%
    07:00 +11°C° 0 mm 1 mps 741 mmHg 89%
    08:00 +12°C° 0 mm 1 mps 741 mmHg 85%
    09:00 +13°C° 0 mm 2 mps 741 mmHg 81%
    10:00 +15°C° 0 mm 2 mps 741 mmHg 77%
    11:00 +14°C° 0.1 mm 2 mps 741 mmHg 80%
    12:00 +13°C° 0.1 mm 3 mps 741 mmHg 83%
    13:00 +13°C° 0.1 mm 3 mps 740 mmHg 86%
    14:00 +14°C° 0 mm 3 mps 740 mmHg 82%
    15:00 +17°C° 0 mm 3 mps 740 mmHg 78%
    16:00 +18°C° 0 mm 3 mps 740 mmHg 74%
    17:00 +17°C° 0.5 mm 3 mps 740 mmHg 81%
    18:00 +16°C° 0.5 mm 3 mps 740 mmHg 87%
    19:00 +15°C° 0.5 mm 2 mps 740 mmHg 94%
    20:00 +14°C° 0.4 mm 3 mps 740 mmHg 95%
    21:00 +13°C° 0.4 mm 3 mps 740 mmHg 95%
    22:00 +13°C° 0.4 mm 3 mps 740 mmHg 96%
    23:00 +13°C° 0.1 mm 3 mps 740 mmHg 96%
    Show more